Tracking 29967 objects as of 5-Dec-2024
HD Live streaming from Space Station
objects crossing your sky now

STARLINK-30470

Track STARLINK-30470 now!
10-day predictions
STARLINK-30470 is classified as:


NORAD ID: 57892
Int'l Code: 2023-146B
Perigee: 565.5 km
Apogee: 567.0 km
Inclination: 43.0 °
Period: 95.8 minutes
Semi major axis: 6937 km
RCS: Unknown
Launch date: September 20, 2023
Source: United States (US)
Launch site: AIR FORCE EASTERN TEST RANGE (AFETR)
Your satellite tracking list
Your tracking list is empty




NASA's NSSDC Master Catalog

Two Line Element Set (TLE):
1 57892U 23146B   24340.59303882  .00000086  00000-0  21410-4 0  9994
2 57892  43.0007 288.1714 0001087 270.1818  89.8900 15.02532173 68008
Source of the keplerian elements: AFSPC